Kosmos-1733

operational
NORAD ID: 16611 Int'l Des: 1986-018 Owner: GRU Country: SU
LEOCIRCULARPOLAR

About Kosmos-1733

Description loading...

Live Position

Loading 3D Globe...

Upcoming Passes

Altitude History

Altitude vs Time

uPlot chart will show altitude changes over time

Two-Line Element Set

1 16611U 86018A 25278.36325389 .00124316 00000-0 72514-3 0 9990
2 16611 82.4637 236.6607 0009201 116.1917 244.0296 15.77983455170745
Epoch: Oct 5, 2025 • Age: 10 hours

Current Status

Altitude 366.6 km
Velocity 7.69 km/s
Sub-Earth Point -70.33°S, 139.42°E
Launch Date Feb 19, 1986
Age 39.6 years
Type other

Technical Details

Classification Payload
Mass 1750.00 kg
Dry Mass 1750.00 kg
Total Mass 1750.00 kg
Length 3.20 m
Diameter 1.30 m
Span 13.10 m
Shape Cyl + Ant
Manufacturer YUZH
Bus Type Tselina-D
Phase Status In Orbit
Owner/State GRU/SU

Large Constellations

Loading constellations...